www.pogodaiklimat.ru

Погода и климат >> Архив погоды >> Индонезия >> Банюванги


ПОГОДА в Банюванги

  • Прогноз погоды в Банюванги
  • Монитор погоды в Банюванги

АРХИВ ПОГОДЫ в Банюванги

Время (UTC), дата Ветер
(напр.,м/с)
 
Видим.   Явления Облачность Т
(С)
Тd
(С)
f
(%)
Тe
(С)
Тes
(С)
Комфортность P
(гПа)
Po
(гПа)
Тmin
(С)
Tmax
(С)
R
(мм)
R24
(мм)
S
(см)
18 13.09 штиль 0 7000 м 8/5 540 м
[Sc Ac trans Ci fib]
+24.9 +22.1 84 +32 +32 очень
душно
1013.3 1008.3
21 13.09 штиль 0 3000 м слаб. дождь 8/6 480 м
[Sc Ac As Ci sp]
+23.5 +21.9 91 +30 +30 очень
душно
1013.3 1008.3 20
00 14.09 штиль 0 7000 м осадки на расстоянии 10/8 500 м
[Sc As trans Cs]
+23.6 +21.7 89 +30 +31 очень
душно
1014.9 1010.0 +22.8 4
03 14.09 Ю 3 9000 м {дождь} 6/5 570 м
[Sc Ci fib]
+26.8 +22.3 76 +35 +42 очень
душно
1014.7 1009.8 4
06 14.09 ЮВ 3 9000 м {дождь} 5/4 540 м
[Sc Ci fib]
+28.0 +21.7 69 +36 +45 очень
душно
1011.9 1007.0 4
09 14.09 ЮВ 2 9000 м 6/4 540 м
[Sc As trans Ci fib]
+26.9 +22.6 77 +35 +37 очень
душно
1011.3 1006.4
12 14.09 штиль 0 9000 м 4/3 540 м
[Sc As op Ci fib]
+25.2 +22.2 83 +33 +33 очень
душно
1013.2 1008.0 +28.2
15 14.09 штиль 0 9000 м 8/5 540 м
[Sc As op Ci fib]
+24.2 +22.0 88 +31 +31 очень
душно
1013.3 1008.1
18 14.09 штиль 0 9000 м 9/6 540 м
[Sc As op Ci fib]
+24.1 +21.8 87 +31 +31 очень
душно
1012.3 1007.1
21 14.09 штиль 0 9000 м 9/6 540 м
[Sc As op Ci fib]
+23.7 +21.0 85 +30 +30 очень
душно
1012.1 1006.9
00 15.09 ЮЗ 2 9000 м 8/4 540 м
[Sc As op Ci fib]
+25.1 +21.7 81 +32 +33 очень
душно
1013.5 1008.6 +23.4 4
03 15.09 Ю 3 9000 м 8/5 540 м
[Sc Ac trans Ci fib]
+28.2 +22.1 70 +37 +42 очень
душно
1013.2 1008.3
06 15.09 ЮВ 3 9000 м 6/5 540 м
[Sc Ac trans Ci fib]
+28.6 +22.4 69 +37 +44 очень
душно
1010.8 1005.9
09 15.09 Ю 2 8000 м 8/5 540 м
[Sc As op Ci fib]
+26.0 +22.3 80 +34 +35 очень
душно
1010.2 1005.3
12 15.09 Ю 1 7000 м осадки на расстоянии 9/5 540 м
[Sc Ac As Cs]
+25.6 +22.6 84 +34 +34 очень
душно
1011.7 1006.8 +28.8
15 15.09 Ю 1 7000 м 6/4 570 м
[Sc Ac trans Ci fib]
+24.9 +22.4 86 +33 +33 очень
душно
1012.2 1007.3
18 15.09 штиль 0 7000 м 6/4 570 м
[Sc Ac trans Cs]
+23.9 +21.9 89 +31 +31 очень
душно
1010.9 1005.9
21 15.09 Ю 1 7000 м 6/4 570 м
[Sc Ac trans Cs]
+23.5 +21.5 89 +30 +30 очень
душно
1011.3 1006.4
00 16.09 штиль 0 9000 м 8/5 600 м
[Sc Ac trans Ci fib]
+24.2 +20.8 81 +30 +32 очень
душно
1012.5 1007.5 +23.0
03 16.09 В 2 9000 м 6/4 600 м
[Sc As trans Ci fib]
+27.7 +22.2 72 +36 +45 очень
душно
1012.2 1007.3
06 16.09 штиль 0 10 км 4/3 570 м
[Cu hum Ci fib]
+29.8 +21.8 62 +38 +55 опасность
солнечного
удара
1009.9 1005.1
09 16.09 СВ 3 10 км 4/3 570 м
[Cu hum Ci fib]
+29.0 +21.2 63 +37 +38 очень
душно
1009.1 1004.2
12 16.09 ЮВ 2 8000 м 8/5 540 м
[Sc As trans Cs]
+26.2 +22.9 82 +35 +35 очень
душно
1011.2 1006.3 +30.0
15 16.09 ЮВ 2 8000 м 8/5 540 м
[Sc As op Ci fib]
+25.4 +22.7 85 +33 +33 очень
душно
1012.7 1007.5
18 16.09 штиль 0 8000 м 8/5 540 м
[Sc As op Ci fib]
+25.2 +22.6 86 +33 +33 очень
душно
1012.2 1007.0
21 16.09 Ю 1 8000 м 8/5 540 м
[Sc As op Ci fib]
+24.9 +22.8 88 +33 +33 очень
душно
1012.4 1007.3
00 17.09 ЮЗ 2 9000 м 8/5 540 м
[Sc As op Ci fib]
+25.4 +21.7 80 +33 +34 очень
душно
1013.4 1008.5 +23.8
03 17.09 В 3 9000 м 6/4 540 м
[Sc As op Ci fib]
+28.7 +22.0 67 +37 +45 очень
душно
1012.9 1008.0
06 17.09 В 3 9000 м 6/3 540 м
[Sc As trans Ci fib]
+28.9 +21.9 66 +37 +45 очень
душно
1010.5 1005.6
09 17.09 ЮВ 1 8000 м 10/6 540 м
[Sc As op Ci fib]
+26.8 +22.8 79 +36 +36 очень
душно
1011.1 1006.2
12 17.09 Ю 1 7000 м 10/6 540 м
[Sc As op Ci fib]
+25.8 +23.2 86 +35 +35 очень
душно
1013.6 1008.4
15 17.09 Ю 1 7000 м 10/6 540 м
[Sc As op Ci fib]
+25.4 +23.0 87 +34 +34 очень
душно
1014.5 1009.3
18 17.09 штиль 0 6000 м 10/6 540 м
[Sc As op Ci fib]
+25.0 +22.8 88 +33 +33 очень
душно
1013.6 1008.4
21 17.09 штиль 0 6000 м 8/5 540 м
[Sc As op Ci fib]
+24.4 +22.2 88 +32 +32 очень
душно
1013.5 1008.3
00 18.09 штиль 0 10 км 3/3 600 м
[Sc Ci fib]
+23.2 +20.7 86 +31 +34 очень
душно
1014.6 1009.4 +23.0
03 18.09 штиль 0 10 км 5/3 600 м
[Sc As trans Ci fib]
+27.7 +21.9 71 +36 +51 опасность
солнечного
удара
1015.1 1009.9
06 18.09 ЮВ 5 10 км 5/3 600 м
[Sc As trans Ci fib]
+28.2 +22.6 72 +37 +44 очень
душно
1012.5 1007.6
09 18.09 Ю 3 10 км 6/4 600 м
[Sc Ac trans Ci fib]
+27.6 +22.5 74 +36 +38 очень
душно
1011.8 1006.9
12 18.09 штиль 0 7000 м 8/6 540 м
[Sc Ac trans Ci fib]
+25.8 +22.8 84 +34 +34 очень
душно
1014.4 1008.8 +29.0
15 18.09 штиль 0 6000 м 8/6 540 м
[Sc Ac trans Ci fib]
+24.7 +22.3 87 +32 +32 очень
душно
1014.6 1009.4
18 18.09 штиль 0 6000 м 9/8 540 м
[Sc Ac trans Ci fib]
+24.6 +22.2 87 +32 +32 очень
душно
1013.4 1008.2
21 18.09 штиль 0 6000 м 6/5 570 м
[Sc Ac trans Ci fib]
+24.1 +21.3 84 +30 +30 очень
душно
1013.6 1008.5
00 19.09 Ю 1 9000 м 3/1 600 м
[Cu hum Ci fib]
+25.1 +21.3 79 +32 +35 очень
душно
1014.8 1009.8 +22.2
03 19.09 Ю 2 9000 м 4/3 600 м
[Cu hum Cs]
+27.6 +21.6 70 +35 +48 очень
душно
1014.1 1009.2
06 19.09 штиль 0 10 км 4/3 600 м
[Sc Ci fib]
+28.8 +21.6 65 +37 +53 опасность
солнечного
удара
1012.2 1007.0
09 19.09 штиль 0 10 км 4/3 600 м
[Sc Ci fib]
+27.8 +22.5 73 +37 +39 очень
душно
1011.6 1006.5
12 19.09 Ю 2 8000 м 9/5 540 м
[Sc As op Ci fib]
+25.7 +23.0 85 +34 +34 очень
душно
1013.0 1008.1 +28.8
15 19.09 ЮЗ 3 7000 м {дождь} 9/5 540 м
[Sc As op Ci fib]
+25.3 +22.1 82 +33 +33 очень
душно
1013.4 1008.5 0.0
18 19.09 ЮВ 2 7000 м {дождь} 9/5 540 м
[Sc As op Ci fib]
+24.6 +22.6 89 +32 +32 очень
душно
1012.5 1007.5 0.0
21 19.09 Ю 2 7000 м 9/5 540 м
[Sc As op Ci fib]
+24.5 +22.5 89 +32 +32 очень
душно
1012.6 1007.6
00 20.09 Ю 2 8000 м осадки на расстоянии 9/8 540 м
[Sc As trans Cs]
+25.0 +22.2 84 +32 +33 очень
душно
1013.9 1008.9 +23.8 0.0
03 20.09 Ю 4 9000 м 5/4 570 м
[Sc Ci fib]
+28.4 +22.2 69 +37 +45 очень
душно
1013.6 1008.8
06 20.09 ЮВ 6 9000 м 4/3 570 м
[Sc Ci fib]
+28.9 +21.6 65 +37 +42 очень
душно
1010.8 1006.0
09 20.09 ЮВ 3 10 км 4/3 570 м
[Sc Ci fib]
+28.0 +22.2 71 +37 +38 очень
душно
1010.3 1005.4
12 20.09 штиль 0 8000 м 6/4 570 м
[Sc As trans Ci fib]
+25.5 +22.2 82 +33 +33 очень
душно
1012.5 1007.3 +29.0
15 20.09 Ю 2 8000 м 6/4 570 м
[Sc As trans Ci fib]
+25.2 +21.2 79 +32 +32 очень
душно
1013.5 1008.3

 

Местоположение метеостанции Банюванги (Индонезия): широта -8.22 долгота 114.38 высота над уровнем моря 5 м.

В архиве по умолчанию представлена погода в Банюванги за последнюю неделю. Архивные данные за месяц целиком и за предыдущие месяцы, начиная с января 2011 года, Вы можете получить, выбрав интересующий диапазон дат из раскрывающегося списка и нажав кнопку "Ввод!".


*Определитесь, кто Вы:
робот инопланетянин человек

Внимание! Время в таблицах - всемирное. Для получения местного времени необходимо прибавить поправку, которая равна 7 ч.

Смотрите также архив погоды в соседних городах и на ближайших метеорологических станциях:

Погода в Денпасаре (Индонезия) (104 км)
Погода в Сурабая Геданган (Индонезия) (134 км)
Погода в Калиянджете (Индонезия) (138 км)
Погода в Матараме (Индонезия) (188 км)
Погода в Аэропорту Джуанда (Индонезия) (202 км)
Погода в Сурабая Перак (Индонезия) (215 км)
Погода в Сангкапуре (Индонезия) (327 км)
Погода в Сумбава-Бесаре (Индонезия) (335 км)
Погода в Семаранге (Индонезия) (459 км)
Погода в Аэропорту Ахмад Яни (Индонезия) (462 км)

Пояснения к столбцам:

Ветер - указаны скорость ветра в м/с - средняя за 10 мин, порывы в срок и между сроками (в фигурных скобках) и направление, откуда дует ветер: С - северный, СВ - северо-восточный, В - восточный, ЮВ - юго-восточный, Ю - южный, ЮЗ - юго-западный, З - западный, СЗ - северо-западный.
Видимость - горизонтальная дальность видимости в метрах или километрах. При видимости от 1 до 10 км при отсутствии осадков обычно наблюдается дымка, при ухудшении видимости до 1 км и менее - туман. В сухую погоду видимость может ухудшаться дымом, пылью или мглою.
Явления - указаны атмосферные явления, наблюдавшиеся в срок или в последний час перед сроком; фигурными скобками обозначены явления, наблюдавшиеся между сроками (за 1-3 часа до срока); квадратными скобками обозначены град или гололедные отложения с указанием их диаметра в мм.
Облачность - указаны через наклонную черту общая и нижняя облачность в баллах и высота нижней границы облаков в метрах; квадратными скобками обозначены формы облаков: Ci - перистые, Cs - перисто-слоистые, Cc - перисто-кучевые, Ac - высококучевые, As - высокослоистые, Sc - слоисто-кучевые, Ns - слоисто-дождевые, Cu - кучевые, Cb - кучево-дождевые. Подробнее классификацию облаков см. в Атласе облаков (PDF).
T - Температура воздуха - температура, измеренная на высоте 2 м над землей.
Td - Температура точки росы - температура, при понижении до которой содержащийся в воздухе водяной пар достигнет насыщения.
f - Относительная влажность воздуха - влажноcть воздуха, измеренная на высоте 2 м над землей.
Te - Эффективная температура - температура, которую ощущает одетый по сезону человек в тени. Характеристика душности погоды. При расчете учитывается влияние влажности воздуха и скорости ветра на теплоощущения человека.
Tes - Эффективная температура на солнце - температура, которую ощущает человек, с поправкой на солнечный нагрев. Характеристика знойности погоды. Зависит от высоты солнца над горизонтом, облачности и скорости ветра. Ночью, в пасмурную погоду, а также при ветре 12 м/с и более поправка равна нулю.
P - Атмосферное давление - приведенное к уровню моря атмосферное давление.
Po - Атмосферное давление - измеренное на уровне метеостанции атмосферное давление.
Tmin - Минимальная температура - минимум температуры воздуха на высоте 2 м над землей.
Tmax - Максимальная температура - максимум температуры воздуха на высоте 2 м над землей.
R - Количество осадков - Количество выпавших осадков за период времени, мм. При наведении курсора мыши на число - период времени, за который выпало указанное количество осадков.
R24 - Количество осадков - Количество выпавших осадков за 24 часа, мм.
S - Снежный покров - Высота снежного покрова, см. При наведении курсора мыши на число - состояние снежного покрова и степень покрытия местности в баллах.